Imperial, CA

1:50 AM PDT on October 17, 2017 (GMT -0700)
Imperial County

Weather History for KIPL - July, 2014

Change the Weather History Date:

Saturday, July 26, 2014

  Actual Average Record
Temperature  
Mean Temperature 96 °F -  
Max Temperature 108 °F 106 °F 118 °F (1998)
Min Temperature 87 °F 79 °F 69 °F (1949)
Cooling Degree Days 32    
Growing Degree Days 46 (Base 50)    
Moisture  
Dew Point 66 °F    
Average Humidity 39    
Maximum Humidity 67    
Minimum Humidity 23    
Precipitation  
Precipitation 0.00 in - - ()
Sea Level Pressure  
Sea Level Pressure 29.79 in    
Wind  
Wind Speed 7 mph (SE)    
Max Wind Speed 13 mph    
Max Gust Speed -    
Visibility 10 miles    
Events      
Averages and records for this station are not official NWS values.
T = Trace of Precipitation, MM = Missing Value Source: NWS Daily Summary

Daily Weather History Graph

Daily Weather History Graph

Search for Another Location

Airport or City:

Trip Planner

Search our weather history database for the weather conditions in past years. The results will help you decide how hot, cold, wet, or windy it might be!

Date:

Astronomy

Jul. 26, 2014 Rise Set
Actual Time 5:52 AM PDT 7:45 PM PDT
Civil Twilight 5:24 AM PDT 8:12 PM PDT
Nautical Twilight 4:51 AM PDT 8:45 PM PDT
Astronomical Twilight 4:16 AM PDT 9:20 PM PDT
Moon 5:44 AM PDT (7/26) 7:27 PM PDT (7/26)
Length of Visible Light 14h 47m
Length of Day
13h 53m
Waning Crescent, 0% of the Moon is Illuminated
Jul 26
Waning Crescent
Jul 26
New
Aug 3
First Quarter
Aug 10
Full
Aug 17
Last Quarter

Hourly Weather History & Observations

Time (PDT) Temp. Heat Index Dew Point Humidity Pressure Visibility Wind Dir Wind Speed Gust Speed Precip Events Conditions
12:53 AM 93.9 °F 95.6 °F 64.0 °F 37% 29.78 in 10.0 mi South 3.5 mph - N/A   Clear
1:53 AM 90.0 °F 93.6 °F 68.0 °F 48% 29.78 in 10.0 mi ESE 8.1 mph - N/A   Clear
2:53 AM 88.0 °F 98.5 °F 75.9 °F 67% 29.79 in 10.0 mi SE 10.4 mph - N/A   Clear
3:53 AM 88.0 °F 97.5 °F 75.0 °F 65% 29.80 in 10.0 mi ESE 10.4 mph - N/A   Clear
4:53 AM 87.1 °F 95.4 °F 73.9 °F 65% 29.80 in 10.0 mi ESE 11.5 mph - N/A   Clear
5:53 AM 87.1 °F 94.5 °F 73.0 °F 63% 29.81 in 10.0 mi SE 8.1 mph - N/A   Clear
6:53 AM 87.1 °F 93.6 °F 72.0 °F 61% 29.83 in 10.0 mi ESE 5.8 mph - N/A   Clear
8:53 AM 93.0 °F 100.7 °F 72.0 °F 50% 29.87 in 10.0 mi ESE 8.1 mph - N/A   Clear
11:53 AM 100.0 °F 104.9 °F 66.9 °F 34% 29.85 in 10.0 mi Variable 4.6 mph - N/A   Clear
12:53 PM 102.0 °F 108.1 °F 68.0 °F 33% 29.83 in 10.0 mi East 11.5 mph - N/A   Clear
1:53 PM 105.1 °F 109.3 °F 64.9 °F 27% 29.81 in 10.0 mi Variable 5.8 mph - N/A   Clear
2:53 PM 105.8 °F 107.5 °F 60.8 °F 23% 29.78 in 10.0 mi Variable 6.9 mph - N/A   Partly Cloudy
3:53 PM 106.0 °F 107.8 °F 61.0 °F 23% 29.76 in 10.0 mi ESE 6.9 mph - N/A   Clear
4:53 PM 106.0 °F 108.6 °F 62.1 °F 24% 29.74 in 10.0 mi SE 12.7 mph - N/A   Clear
5:53 PM 104.0 °F 106.0 °F 62.1 °F 25% 29.73 in 10.0 mi ESE 11.5 mph - N/A   Clear
6:53 PM 102.9 °F 104.8 °F 62.1 °F 26% 29.73 in 10.0 mi ESE 11.5 mph - N/A   Clear
7:53 PM 100.0 °F 103.0 °F 64.0 °F 31% 29.74 in 10.0 mi ESE 9.2 mph - N/A   Clear
8:53 PM 98.1 °F 102.4 °F 66.9 °F 36% 29.76 in 10.0 mi South 6.9 mph - N/A   Clear
9:53 PM 97.0 °F 96.5 °F 59.0 °F 28% 29.78 in 10.0 mi West 3.5 mph - N/A   Clear
10:53 PM 93.9 °F 92.9 °F 57.9 °F 30% 29.79 in 10.0 mi SSW 4.6 mph - N/A   Clear
11:53 PM 93.0 °F 92.0 °F 57.9 °F 31% 29.79 in 10.0 mi SSW 4.6 mph - N/A   Clear